Overview Statistics Trail Chart Weather Telemetry Raw packets
 

This is the latest recevied weather packets stored in our database for station/object F5IOR. If no packets are shown the sender has not sent any weather packets the latest 10 day(s).

<< 2 3 4 5 6 7 8 >>
Time Temp. Humidity Pressure Rain* Wind** Luminosity Snow
1788374167 22.22° C 56% 993.7 hPa 0 mm - - -
1788372367 24.44° C 47% 993.5 hPa 0 mm - - -
1788370567 25° C 45% 993.5 hPa 0 mm - - -
1788368767 26.11° C 41% 993.6 hPa 0 mm - - -
1788366967 26.11° C 41% 993.5 hPa 0 mm - - -
1788365167 26.11° C 41% 993.8 hPa 0 mm - - -
1788363367 26.11° C 40% 993.9 hPa 0 mm - - -
1788361567 26.67° C 40% 993.9 hPa 0 mm - - -
1788359767 26.67° C 41% 993.8 hPa 0 mm - - -
1788357967 26.67° C 43% 993.9 hPa 0 mm - - -
1788356167 26.67° C 43% 994 hPa 0 mm - - -
1788354367 26.11° C 45% 994.3 hPa 0 mm - - -
1788352567 26.11° C 45% 994.4 hPa 0 mm - - -
1788350767 25.56° C 47% 994.4 hPa 0 mm - - -
1788348967 25° C 48% 994.5 hPa 0 mm - - -
1788347167 24.44° C 52% 994.7 hPa 0 mm - - -
1788345367 23.89° C 53% 994.8 hPa 0 mm - - -
1788343567 22.22° C 58% 994.6 hPa 0 mm - - -
1788341767 21.67° C 60% 994.7 hPa 0 mm - - -
1788340807 20.56° C 63% 994.6 hPa 0 mm - - -
1788339847 20° C 65% 994.6 hPa 0 mm - - -
1788338887 18.89° C 68% 994.4 hPa 0 mm - - -
1788337927 17.78° C 72% 994.4 hPa 0 mm - - -
1788337447 17.78° C 72% 994.4 hPa 0 mm - - -
1788336981 17.78° C 72% 994.4 hPa 0 mm - - -

* Rain latest hour (hover to see other rain measurements)
** Current wind speed in m/s (hover to see current wind gust speed)